TimeEST,TemperatureF,Dew PointF,Humidity,Sea Level PressureIn,VisibilityMPH,Wind Direction,Wind SpeedMPH,Gust SpeedMPH,PrecipitationIn,Events,Conditions,WindDirDegrees,DateUTC
12:56 AM,60.1,39.9,47,30.17,10.0,South,9.2,-,N/A,,Partly Cloudy,170,2012-11-11 05:56:00
1:56 AM,59.0,39.0,48,30.17,10.0,South,9.2,-,N/A,,Partly Cloudy,180,2012-11-11 06:56:00
2:56 AM,59.0,37.9,46,30.16,10.0,South,12.7,-,N/A,,Mostly Cloudy,170,2012-11-11 07:56:00
3:56 AM,57.9,39.0,49,30.17,10.0,South,9.2,-,N/A,,Mostly Cloudy,180,2012-11-11 08:56:00
4:56 AM,57.0,39.0,51,30.18,10.0,South,13.8,-,N/A,,Mostly Cloudy,170,2012-11-11 09:56:00
5:56 AM,57.0,39.0,51,30.20,10.0,South,8.1,-,N/A,,Mostly Cloudy,170,2012-11-11 10:56:00
6:56 AM,53.1,39.0,59,30.22,10.0,SSE,6.9,-,N/A,,Mostly Cloudy,150,2012-11-11 11:56:00
7:56 AM,54.0,39.0,57,30.22,10.0,SSE,9.2,-,N/A,,Mostly Cloudy,150,2012-11-11 12:56:00
8:56 AM,61.0,37.9,42,30.24,10.0,South,13.8,-,N/A,,Mostly Cloudy,170,2012-11-11 13:56:00
9:56 AM,62.1,39.0,43,30.23,10.0,South,15.0,-,N/A,,Mostly Cloudy,180,2012-11-11 14:56:00
10:56 AM,66.0,42.1,42,30.22,10.0,South,16.1,25.3,N/A,,Mostly Cloudy,170,2012-11-11 15:56:00
11:56 AM,68.0,44.1,42,30.18,10.0,South,15.0,23.0,N/A,,Mostly Cloudy,170,2012-11-11 16:56:00
12:56 PM,70.0,44.1,39,30.15,10.0,South,17.3,23.0,N/A,,Mostly Cloudy,180,2012-11-11 17:56:00
1:56 PM,69.1,39.9,35,30.14,10.0,South,17.3,26.5,N/A,,Mostly Cloudy,170,2012-11-11 18:56:00
2:56 PM,69.1,39.9,35,30.11,10.0,South,17.3,-,N/A,,Mostly Cloudy,170,2012-11-11 19:56:00
3:56 PM,68.0,39.0,35,30.11,10.0,South,21.9,25.3,N/A,,Overcast,170,2012-11-11 20:56:00
4:56 PM,68.0,39.0,35,30.09,10.0,South,16.1,-,N/A,,Mostly Cloudy,170,2012-11-11 21:56:00
5:56 PM,66.0,39.0,37,30.08,10.0,SSE,11.5,-,N/A,,Overcast,150,2012-11-11 22:56:00
6:56 PM,64.0,41.0,43,30.09,10.0,SSE,9.2,-,N/A,,Overcast,150,2012-11-11 23:56:00
7:56 PM,66.9,44.1,44,30.07,10.0,South,17.3,23.0,N/A,,Overcast,170,2012-11-12 00:56:00
8:56 PM,66.0,46.0,48,30.06,10.0,SSE,23.0,28.8,N/A,,Overcast,160,2012-11-12 01:56:00
9:56 PM,64.9,46.9,52,30.06,10.0,South,18.4,27.6,N/A,,Overcast,170,2012-11-12 02:56:00
10:56 PM,64.9,48.0,54,30.06,10.0,South,18.4,25.3,N/A,,Overcast,180,2012-11-12 03:56:00
11:56 PM,64.9,48.0,54,30.07,10.0,South,20.7,28.8,N/A,,Mostly Cloudy,190,2012-11-12 04:56:00